TimeCDT,TemperatureF,Dew PointF,Humidity,Sea Level PressureIn,VisibilityMPH,Wind Direction,Wind SpeedMPH,Gust SpeedMPH,PrecipitationIn,Events,Conditions,WindDirDegrees,DateUTC
12:15 AM,57.4,49.3,74,30.26,10.0,Calm,Calm,-,N/A,,Clear,0,2013-09-16 05:15:00
12:35 AM,56.5,49.5,77,30.26,10.0,NNE,3.5,-,N/A,,Clear,20,2013-09-16 05:35:00
12:55 AM,55.6,49.5,80,30.26,10.0,NNE,3.5,-,N/A,,Clear,20,2013-09-16 05:55:00
1:15 AM,54.9,49.1,81,30.26,10.0,North,3.5,-,N/A,,Clear,10,2013-09-16 06:15:00
1:35 AM,54.0,49.1,84,30.27,10.0,North,4.6,-,N/A,,Clear,10,2013-09-16 06:35:00
1:55 AM,53.2,48.6,84,30.27,10.0,North,4.6,-,N/A,,Clear,10,2013-09-16 06:55:00
2:15 AM,53.6,49.3,85,30.27,10.0,North,4.6,-,N/A,,Clear,10,2013-09-16 07:15:00
2:35 AM,52.7,49.1,88,30.27,10.0,North,5.8,-,N/A,,Clear,10,2013-09-16 07:35:00
2:55 AM,52.9,49.5,88,30.28,10.0,North,4.6,-,N/A,,Clear,10,2013-09-16 07:55:00
3:15 AM,52.9,49.6,89,30.28,10.0,NNE,5.8,-,N/A,,Clear,30,2013-09-16 08:15:00
3:35 AM,52.3,49.3,89,30.28,10.0,NNE,3.5,-,N/A,,Clear,20,2013-09-16 08:35:00
3:55 AM,51.8,48.9,90,30.28,10.0,NNE,5.8,-,N/A,,Clear,30,2013-09-16 08:55:00
4:15 AM,51.3,48.4,90,30.28,10.0,NNE,4.6,-,N/A,,Clear,30,2013-09-16 09:15:00
4:35 AM,50.9,48.2,90,30.28,10.0,NE,4.6,-,N/A,,Scattered Clouds,40,2013-09-16 09:35:00
4:55 AM,51.6,48.9,90,30.28,10.0,NE,3.5,-,N/A,,Mostly Cloudy,40,2013-09-16 09:55:00
5:15 AM,52.3,49.5,90,30.29,10.0,NE,3.5,-,N/A,,Overcast,40,2013-09-16 10:15:00
5:35 AM,53.4,50.2,89,30.29,10.0,ENE,3.5,-,N/A,,Overcast,70,2013-09-16 10:35:00
5:55 AM,54.5,50.9,88,30.30,10.0,ENE,5.8,-,N/A,,Overcast,70,2013-09-16 10:55:00
6:15 AM,54.7,50.9,87,30.31,10.0,East,5.8,-,N/A,,Overcast,80,2013-09-16 11:15:00
6:35 AM,54.9,51.1,87,30.31,10.0,ENE,5.8,-,N/A,,Overcast,70,2013-09-16 11:35:00
6:55 AM,55.2,51.3,87,30.32,10.0,ENE,3.5,-,N/A,,Overcast,70,2013-09-16 11:55:00
7:15 AM,55.4,51.4,87,30.32,10.0,ENE,6.9,-,N/A,,Overcast,70,2013-09-16 12:15:00
7:35 AM,55.6,51.6,87,30.32,10.0,East,8.1,-,N/A,,Overcast,80,2013-09-16 12:35:00
7:55 AM,56.1,51.8,85,30.33,10.0,East,6.9,-,N/A,,Overcast,80,2013-09-16 12:55:00
8:15 AM,56.7,52.0,84,30.33,10.0,East,9.2,-,N/A,,Overcast,80,2013-09-16 13:15:00
8:35 AM,57.2,52.2,83,30.33,10.0,ENE,8.1,-,N/A,,Overcast,70,2013-09-16 13:35:00
8:55 AM,58.3,52.3,81,30.33,10.0,East,5.8,-,N/A,,Scattered Clouds,80,2013-09-16 13:55:00
9:15 AM,59.5,52.9,79,30.34,10.0,East,5.8,-,N/A,,Scattered Clouds,90,2013-09-16 14:15:00
9:35 AM,61.5,52.9,73,30.35,10.0,East,5.8,-,N/A,,Mostly Cloudy,90,2013-09-16 14:35:00
9:55 AM,61.0,53.1,75,30.35,10.0,East,9.2,-,N/A,,Mostly Cloudy,100,2013-09-16 14:55:00
10:15 AM,61.5,52.9,73,30.35,10.0,East,8.1,-,N/A,,Overcast,100,2013-09-16 15:15:00
10:35 AM,62.2,52.9,71,30.36,10.0,East,10.4,-,N/A,,Overcast,100,2013-09-16 15:35:00
10:55 AM,63.3,52.3,67,30.36,10.0,East,8.1,-,N/A,,Overcast,100,2013-09-16 15:55:00
11:15 AM,64.6,52.9,66,30.35,10.0,East,9.2,-,N/A,,Mostly Cloudy,90,2013-09-16 16:15:00
11:35 AM,65.1,52.2,63,30.35,10.0,East,9.2,-,N/A,,Mostly Cloudy,80,2013-09-16 16:35:00
11:55 AM,67.1,49.8,54,30.35,10.0,East,11.5,17.3,N/A,,Scattered Clouds,100,2013-09-16 16:55:00
12:15 PM,65.7,49.8,57,30.35,10.0,East,8.1,-,N/A,,Mostly Cloudy,80,2013-09-16 17:15:00
12:35 PM,67.1,47.5,49,30.35,10.0,East,10.4,-,N/A,,Overcast,90,2013-09-16 17:35:00
12:55 PM,66.4,48.6,53,30.35,10.0,East,8.1,-,N/A,,Overcast,100,2013-09-16 17:55:00
1:15 PM,66.2,48.4,53,30.34,10.0,SE,6.9,-,N/A,,Overcast,130,2013-09-16 18:15:00
1:35 PM,65.8,49.6,56,30.34,10.0,ESE,10.4,16.1,N/A,,Overcast,110,2013-09-16 18:35:00
1:55 PM,68.9,50.2,51,30.33,10.0,SE,12.7,-,N/A,,Mostly Cloudy,130,2013-09-16 18:55:00
2:15 PM,68.5,49.1,50,30.33,10.0,ESE,9.2,17.3,N/A,,Scattered Clouds,120,2013-09-16 19:15:00
2:35 PM,66.6,48.0,51,30.32,10.0,East,10.4,-,N/A,,Mostly Cloudy,90,2013-09-16 19:35:00
2:55 PM,67.8,47.8,49,30.31,10.0,ESE,12.7,17.3,N/A,,Overcast,120,2013-09-16 19:55:00
3:15 PM,68.7,48.0,48,30.30,10.0,ESE,15.0,18.4,N/A,,Overcast,120,2013-09-16 20:15:00
3:35 PM,68.4,47.3,47,30.29,10.0,SE,9.2,18.4,N/A,,Mostly Cloudy,130,2013-09-16 20:35:00
3:55 PM,66.2,46.8,50,30.28,10.0,East,11.5,-,N/A,,Mostly Cloudy,100,2013-09-16 20:55:00
4:15 PM,66.0,47.1,50,30.28,10.0,ESE,9.2,-,N/A,,Scattered Clouds,120,2013-09-16 21:15:00
4:35 PM,65.7,47.5,52,30.27,10.0,ESE,9.2,-,N/A,,Mostly Cloudy,120,2013-09-16 21:35:00
4:55 PM,65.7,47.3,51,30.27,10.0,SE,8.1,-,N/A,,Overcast,130,2013-09-16 21:55:00
5:15 PM,64.2,47.5,55,30.27,10.0,SE,8.1,-,N/A,,Scattered Clouds,140,2013-09-16 22:15:00
5:35 PM,63.3,47.1,56,30.27,10.0,SE,8.1,-,N/A,,Clear,130,2013-09-16 22:35:00
5:55 PM,63.3,47.3,56,30.26,10.0,SE,11.5,-,N/A,,Scattered Clouds,130,2013-09-16 22:55:00
6:15 PM,62.4,47.1,57,30.26,10.0,SE,8.1,-,N/A,,Scattered Clouds,130,2013-09-16 23:15:00
6:35 PM,61.7,47.3,59,30.25,10.0,ESE,9.2,-,N/A,,Clear,120,2013-09-16 23:35:00
6:55 PM,60.8,47.5,62,30.25,10.0,SE,6.9,-,N/A,,Clear,130,2013-09-16 23:55:00
7:15 PM,59.5,47.5,64,30.24,10.0,SE,5.8,-,N/A,,Clear,130,2013-09-17 00:15:00
7:35 PM,58.8,47.8,67,30.24,10.0,ESE,6.9,-,N/A,,Clear,120,2013-09-17 00:35:00
7:55 PM,57.9,48.2,70,30.24,10.0,ESE,5.8,-,N/A,,Clear,110,2013-09-17 00:55:00
8:15 PM,56.7,48.4,74,30.24,10.0,ESE,4.6,-,N/A,,Clear,110,2013-09-17 01:15:00
8:35 PM,57.2,48.7,73,30.25,10.0,ESE,5.8,-,N/A,,Mostly Cloudy,110,2013-09-17 01:35:00
8:55 PM,56.8,48.7,74,30.25,10.0,ESE,5.8,-,N/A,,Mostly Cloudy,120,2013-09-17 01:55:00
9:15 PM,56.8,48.2,73,30.25,10.0,ESE,9.2,-,N/A,,Overcast,120,2013-09-17 02:15:00
9:35 PM,57.4,48.6,72,30.25,10.0,ESE,8.1,-,N/A,,Mostly Cloudy,120,2013-09-17 02:35:00
9:55 PM,57.0,48.7,74,30.26,10.0,SE,6.9,-,N/A,,Scattered Clouds,130,2013-09-17 02:55:00
10:15 PM,55.8,49.1,78,30.26,10.0,SE,5.8,-,N/A,,Clear,130,2013-09-17 03:15:00
10:35 PM,55.4,49.1,79,30.26,10.0,SE,4.6,-,N/A,,Scattered Clouds,140,2013-09-17 03:35:00
10:55 PM,54.7,49.1,81,30.26,10.0,ESE,3.5,-,N/A,,Scattered Clouds,120,2013-09-17 03:55:00
11:15 PM,54.5,49.3,83,30.26,10.0,ESE,4.6,-,N/A,,Clear,120,2013-09-17 04:15:00
11:35 PM,54.9,49.5,82,30.26,10.0,ESE,5.8,-,N/A,,Clear,120,2013-09-17 04:35:00
11:55 PM,54.5,49.5,83,30.26,10.0,ESE,5.8,-,N/A,,Clear,110,2013-09-17 04:55:00